Whitefield, NH

12:14 AM EDT on May 28, 2017 (GMT -0400)
Mount Washington Regional

Weather History for KHIE - February, 2014

Change the Weather History Date:

Thursday, February 6, 2014

  Actual Average Record
Temperature  
Mean Temperature 5 °F -  
Max Temperature 16 °F 26 °F 48 °F (2005)
Min Temperature -6 °F 0 °F -27 °F (2015)
Degree Days  
Heating Degree Days 60    
Moisture  
Dew Point 1 °F    
Average Humidity 77    
Maximum Humidity 84    
Minimum Humidity 54    
Precipitation  
Precipitation 0.00 in - - ()
Sea Level Pressure  
Sea Level Pressure 30.14 in    
Wind  
Wind Speed 3 mph (WNW)    
Max Wind Speed 7 mph    
Max Gust Speed -    
Visibility 7 miles    
Events Snow    
Averages and records for this station are not official NWS values.
T = Trace of Precipitation, MM = Missing Value Source: NWS Daily Summary

Daily Weather History Graph

Daily Weather History Graph

Search for Another Location

Airport or City:

Trip Planner

Search our weather history database for the weather conditions in past years. The results will help you decide how hot, cold, wet, or windy it might be!

Date:

Astronomy

Feb. 06, 2014 Rise Set
Actual Time 6:58 AM EST 5:02 PM EST
Civil Twilight 6:27 AM EST 5:33 PM EST
Nautical Twilight 5:53 AM EST 6:07 PM EST
Astronomical Twilight 5:19 AM EST 6:41 PM EST
Moon 10:32 AM EST (2/6) 12:10 AM EST (2/6)
Length of Visible Light 11h 05m
Length of Day
10h 04m
Waxing Crescent, 49% of the Moon is Illuminated
Feb 6
Waxing Crescent
Feb 6
First Quarter
Feb 14
Full
Feb 22
Last Quarter
Mar 1
New

Hourly Weather History & Observations

Time (EST) Temp. Windchill Dew Point Humidity Pressure Visibility Wind Dir Wind Speed Gust Speed Precip Events Conditions
12:00 AM 16.0 °F 6.3 °F 10.9 °F 81% 29.92 in 7.0 mi WNW 6.9 mph - N/A   Overcast
12:21 AM 15.1 °F - 10.0 °F 80% 29.93 in 7.0 mi Calm Calm - N/A   Overcast
12:52 AM 14.0 °F 8.2 °F 9.0 °F 80% 30.03 in 5.0 mi West 3.5 mph - N/A   Haze
1:31 AM 12.9 °F - 8.1 °F 81% 29.97 in 5.0 mi Calm Calm - N/A   Haze
1:52 AM 12.9 °F - 7.0 °F 77% 30.06 in 5.0 mi Calm Calm - N/A   Haze
2:08 AM 12.9 °F 6.9 °F 7.0 °F 77% 30.01 in 3.0 mi West 3.5 mph - 0.00 in Snow Light Snow
2:17 AM 12.0 °F 4.1 °F 7.0 °F 80% 30.01 in 2.5 mi WNW 4.6 mph - 0.00 in Snow Light Snow
2:31 AM 10.9 °F 1.4 °F 6.1 °F 81% 30.02 in 1.2 mi NW 5.8 mph - 0.00 in Snow Light Snow
2:52 AM 10.9 °F 2.9 °F 6.1 °F 81% 30.10 in 1.8 mi West 4.6 mph - 0.00 in Snow Light Snow
2:59 AM 10.9 °F 4.7 °F 6.1 °F 81% 30.03 in 2.0 mi WNW 3.5 mph - 0.00 in Snow Light Snow
3:33 AM 9.0 °F 2.4 °F 3.9 °F 80% 30.03 in 1.2 mi WNW 3.5 mph - 0.00 in Snow Light Snow
3:52 AM 9.0 °F 2.4 °F 3.9 °F 80% 30.12 in 1.5 mi SW 3.5 mph - 0.00 in Snow Light Snow
4:04 AM 8.1 °F 1.4 °F 3.9 °F 83% 30.06 in 2.0 mi SW 3.5 mph - 0.00 in   Overcast
4:25 AM 8.1 °F - 3.9 °F 83% 30.07 in 6.0 mi Calm Calm - 0.00 in   Mostly Cloudy
4:41 AM 7.0 °F -1.7 °F 1.9 °F 80% 30.08 in 10.0 mi West 4.6 mph - 0.00 in   Scattered Clouds
4:52 AM 3.9 °F -3.4 °F -0.0 °F 84% 30.16 in 10.0 mi NW 3.5 mph - 0.00 in   Clear
5:52 AM -0.0 °F - -4.0 °F 83% 30.20 in 7.0 mi Calm Calm - N/A   Partly Cloudy
6:52 AM -6.0 °F - -9.9 °F 83% 30.24 in 9.0 mi Calm Calm - N/A   Clear
7:52 AM -6.0 °F - -9.9 °F 83% 30.27 in 7.0 mi Calm Calm - N/A   Clear
8:31 AM -5.1 °F - -9.0 °F 83% 30.19 in 1.8 mi Calm Calm - N/A   Clear
8:40 AM -4.0 °F - -9.0 °F 79% 30.19 in 3.0 mi Calm Calm - N/A   Haze
8:52 AM -0.9 °F - -5.1 °F 83% 30.27 in 8.0 mi Calm Calm - N/A   Clear
9:52 AM 8.1 °F - 1.0 °F 73% 30.27 in 10.0 mi Calm Calm - N/A   Clear
10:52 AM 9.0 °F - -2.0 °F 61% 30.27 in 10.0 mi Calm Calm - N/A   Clear
11:52 AM 12.9 °F 5.2 °F 1.9 °F 62% 30.25 in 10.0 mi West 4.6 mph - N/A   Partly Cloudy
12:52 PM 15.1 °F 6.4 °F 1.0 °F 54% 30.22 in 10.0 mi NW 5.8 mph - N/A   Mostly Cloudy
1:52 PM 15.1 °F 9.4 °F 1.0 °F 54% 30.20 in 10.0 mi WNW 3.5 mph - N/A   Clear
2:52 PM 16.0 °F 10.4 °F 3.0 °F 57% 30.21 in 10.0 mi WNW 3.5 mph - N/A   Clear
3:52 PM 16.0 °F - 1.9 °F 54% 30.21 in 10.0 mi Calm Calm - N/A   Clear
4:52 PM 10.9 °F - 5.0 °F 77% 30.22 in 10.0 mi Calm Calm - N/A   Clear
5:52 PM 6.1 °F - 1.9 °F 83% 30.22 in 10.0 mi Calm Calm - N/A   Clear
6:52 PM 3.0 °F - -2.0 °F 80% 30.22 in 10.0 mi Calm Calm - N/A   Clear
7:52 PM 1.9 °F - -2.0 °F 83% 30.21 in 10.0 mi Calm Calm - N/A   Scattered Clouds
8:52 PM 1.0 °F - -4.0 °F 79% 30.19 in 10.0 mi Calm Calm - N/A   Mostly Cloudy
9:52 PM 1.9 °F - -2.9 °F 80% 30.18 in 4.0 mi Calm Calm - N/A   Haze
10:52 PM 3.9 °F - -0.9 °F 80% 30.18 in 5.0 mi Calm Calm - N/A   Haze
11:52 PM 1.0 °F - -2.9 °F 83% 30.16 in 8.0 mi Calm Calm - N/A   Scattered Clouds